QPF
0.03 0.02 0.02 0.01 0.01 0.01 0.02 0.02 0.01 0.01 0.00 0.00 0.00 0.00 0.00 0.00 0.00 0.00 0.00 0.00 0.01 0.01 0.00 0.00 0.00 0.00 0.00 0.00 0.01 0.02 0.04 0.02 0.02 0.01 0.02 0.03 0.04 0.05
0.03 0.02 0.02 0.02 0.01 0.01 0.02 0.02 0.02 0.01 0.01 0.00 0.00 0.00 0.00 0.00 0.00 0.00 0.00 0.00 0.00 0.00 0.00 0.00 0.00 0.00 0.00 0.00 0.00 0.01 0.04 0.06 0.04 0.02 0.01 0.01 0.02 0.04
0.03 0.02 0.02 0.02 0.02 0.01 0.01 0.02 0.02 0.02 0.01 0.01 0.01 0.00 0.00 0.00 0.00 0.00 0.00 0.00 0.00 0.00 0.00 0.00 0.00 0.00 0.00 0.00 0.00 0.00 0.02 0.05 0.05 0.03 0.01 0.01 0.02 0.02
0.03 0.03 0.02 0.02 0.02 0.01 0.01 0.01 0.01 0.02 0.02 0.01 0.01 0.01 0.00 0.00 0.00 0.00 0.00 0.00 0.00 0.00 0.00 0.00 0.00 0.00 0.00 0.00 0.00 0.00 0.00 0.01 0.02 0.02 0.02 0.01 0.01 0.02
0.03 0.03 0.02 0.01 0.01 0.01 0.01 0.01 0.02 0.02 0.01 0.01 0.01 0.01 0.01 0.01 0.00 0.00 0.00 0.00 0.00 0.00 0.00 0.00 0.00 0.00 0.00 0.00 0.00 0.00 0.00 0.00 0.01 0.01 0.01 0.01 0.01 0.01
0.02 0.02 0.02 0.01 0.01 0.01 0.00 0.01 0.01 0.02 0.02 0.01 0.01 0.01 0.01 0.01 0.01 0.00 0.00 0.00 0.00 0.00 0.00 0.01 0.01 0.01 0.01 0.01 0.01 0.01 0.01 0.02 0.02 0.02 0.01 0.01 0.01 0.01
0.02 0.02 0.01 0.01 0.01 0.00 0.00 0.00 0.00 0.01 0.01 0.02 0.01 0.01 0.01 0.01 0.01 0.01 0.01 0.01 0.01 0.00 0.01 0.01 0.01 0.01 0.01 0.02 0.02 0.02 0.03 0.03 0.03 0.02 0.02 0.01 0.01 0.01
0.01 0.01 0.01 0.01 0.01 0.00 0.00 0.00 0.00 0.01 0.01 0.01 0.01 0.01 0.01 0.01 0.01 0.02 0.02 0.02 0.01 0.01 0.01 0.01 0.01 0.01 0.02 0.02 0.02 0.02 0.02 0.02 0.02 0.02 0.02 0.01 0.01 0.01
0.01 0.01 0.01 0.01 0.01 0.00 0.00 0.00 0.00 0.00 0.01 0.01 0.01 0.01 0.01 0.01 0.02 0.02 0.02 0.02 0.01 0.01 0.01 0.01 0.01 0.01 0.01 0.02 0.02 0.01 0.01 0.01 0.01 0.01 0.01 0.01 0.01 0.01
0.00 0.00 0.00 0.00 0.00 0.00 0.00 0.00 0.00 0.00 0.00 0.00 0.00 0.01 0.01 0.01 0.02 0.02 0.02 0.02 0.01 0.01 0.02 0.01 0.01 0.01 0.01 0.01 0.02 0.01 0.01 0.01 0.01 0.01 0.01 0.01 0.01 0.01
0.00 0.00 0.00 0.00 0.00 0.00 0.00 0.00 0.00 0.00 0.00 0.00 0.00 0.01 0.01 0.01 0.01 0.01 0.02 0.02 0.01 0.01 0.01 0.01 0.01 0.01 0.01 0.01 0.01 0.01 0.01 0.01 0.01 0.01 0.01 0.01 0.01 0.01
0.00 0.00 0.00 0.00 0.00 0.00 0.00 0.00 0.00 0.00 0.00 0.00 0.00 0.01 0.01 0.01 0.01 0.01 0.01 0.02 0.02 0.02 0.01 0.01 0.01 0.01 0.01 0.01 0.01 0.00 0.00 0.00 0.01 0.01 0.01 0.01 0.01 0.01
0.00 0.00 0.00 0.00 0.00 0.00 0.00 0.00 0.00 0.00 0.00 0.01 0.01 0.01 0.01 0.01 0.01 0.01 0.01 0.02 0.03 0.02 0.01 0.02 0.02 0.02 0.02 0.01 0.01 0.01 0.00 0.00 0.00 0.01 0.01 0.01 0.01 0.01
0.00 0.00 0.00 0.00 0.00 0.00 0.00 0.00 0.01 0.01 0.01 0.01 0.01 0.01 0.01 0.01 0.01 0.01 0.01 0.02 0.02 0.02 0.02 0.02 0.03 0.02 0.03 0.02 0.01 0.01 0.01 0.00 0.01 0.01 0.01 0.01 0.01 0.02
0.00 0.00 0.00 0.00 0.00 0.00 0.00 0.01 0.01 0.01 0.01 0.01 0.01 0.01 0.01 0.01 0.01 0.02 0.02 0.02 0.02 0.02 0.02 0.02 0.03 0.03 0.03 0.03 0.02 0.01 0.01 0.01 0.01 0.01 0.01 0.01 0.01 0.01
0.00 0.00 0.00 0.00 0.00 0.00 0.00 0.01 0.01 0.01 0.01 0.01 0.01 0.01 0.01 0.01 0.01 0.02 0.02 0.02 0.02 0.02 0.01 0.01 0.02 0.03 0.03 0.02 0.02 0.01 0.01 0.01 0.01 0.02 0.01 0.01 0.01 0.01
0.01 0.00 0.00 0.00 0.00 0.00 0.00 0.01 0.01 0.01 0.01 0.01 0.01 0.02 0.02 0.02 0.02 0.02 0.02 0.02 0.02 0.02 0.02 0.02 0.02 0.02 0.02 0.02 0.02 0.01 0.01 0.01 0.01 0.03 0.03 0.03 0.02 0.02
0.01 0.01 0.01 0.00 0.00 0.01 0.01 0.01 0.01 0.01 0.01 0.01 0.01 0.02 0.02 0.02 0.02 0.02 0.02 0.02 0.02 0.02 0.02 0.02 0.02 0.03 0.02 0.01 0.01 0.01 0.01 0.01 0.01 0.02 0.04 0.04 0.02 0.02
0.01 0.01 0.01 0.01 0.01 0.01 0.01 0.01 0.01 0.01 0.01 0.02 0.02 0.02 0.02 0.02 0.02 0.02 0.02 0.02 0.02 0.02 0.02 0.02 0.02 0.03 0.03 0.02 0.00 0.00 0.01 0.01 0.01 0.02 0.02 0.03 0.02 0.02
0.01 0.01 0.01 0.01 0.01 0.01 0.01 0.01 0.01 0.01 0.02 0.02 0.02 0.02 0.02 0.02 0.02 0.02 0.02 0.02 0.03 0.02 0.02 0.02 0.02 0.02 0.03 0.03 0.02 0.01 0.01 0.01 0.01 0.01 0.01 0.02 0.01 0.01
0.01 0.01 0.01 0.01 0.01 0.01 0.01 0.02 0.02 0.02 0.02 0.02 0.02 0.02 0.02 0.02 0.02 0.02 0.03 0.03 0.03 0.03 0.02 0.02 0.01 0.02 0.02 0.03 0.03 0.01 0.01 0.01 0.01 0.02 0.02 0.02 0.02 0.01
0.01 0.01 0.01 0.01 0.01 0.02 0.02 0.02 0.02 0.02 0.02 0.02 0.02 0.02 0.02 0.02 0.02 0.03 0.03 0.03 0.02 0.02 0.02 0.02 0.01 0.02 0.02 0.03 0.02 0.01 0.01 0.01 0.01 0.02 0.02 0.03 0.03 0.02
0.01 0.01 0.01 0.01 0.01 0.02 0.02 0.02 0.02 0.02 0.02 0.02 0.02 0.02 0.02 0.03 0.03 0.03 0.03 0.02 0.02 0.02 0.02 0.02 0.02 0.01 0.01 0.02 0.02 0.01 0.01 0.01 0.01 0.02 0.02 0.02 0.02 0.02
MSLP
1019.95 1020.04 1020.14 1020.24 1020.30 1020.29 1020.20 1020.02 1019.76 1019.45 1019.10 1018.75 1018.41 1018.10 1017.81 1017.56 1017.31 1017.07 1016.80 1016.52 1016.20 1015.86 1015.51 1015.16 1014.81 1014.47 1014.14 1013.82 1013.48 1013.13 1012.76 1012.34 1011.88 1011.37 1010.82 1010.22 1009.58 1008.90
1019.39 1019.45 1019.55 1019.64 1019.72 1019.74 1019.71 1019.61 1019.44 1019.22 1018.96 1018.67 1018.38 1018.08 1017.80 1017.52 1017.25 1016.97 1016.68 1016.38 1016.07 1015.75 1015.43 1015.11 1014.81 1014.51 1014.22 1013.93 1013.63 1013.31 1012.97 1012.60 1012.20 1011.76 1011.28 1010.76 1010.19 1009.58
1018.84 1018.88 1018.94 1019.02 1019.10 1019.16 1019.18 1019.15 1019.07 1018.94 1018.76 1018.55 1018.32 1018.06 1017.79 1017.50 1017.20 1016.89 1016.57 1016.24 1015.92 1015.61 1015.31 1015.02 1014.75 1014.49 1014.23 1013.97 1013.71 1013.43 1013.13 1012.82 1012.48 1012.12 1011.72 1011.29 1010.81 1010.28
1018.38 1018.38 1018.41 1018.47 1018.54 1018.61 1018.67 1018.69 1018.68 1018.64 1018.54 1018.41 1018.23 1018.01 1017.75 1017.47 1017.15 1016.81 1016.47 1016.13 1015.79 1015.48 1015.18 1014.91 1014.66 1014.42 1014.19 1013.96 1013.73 1013.48 1013.23 1012.96 1012.69 1012.40 1012.09 1011.75 1011.37 1010.92
1018.04 1018.01 1018.01 1018.04 1018.09 1018.16 1018.22 1018.28 1018.32 1018.33 1018.30 1018.22 1018.09 1017.91 1017.68 1017.40 1017.08 1016.74 1016.38 1016.03 1015.69 1015.37 1015.08 1014.82 1014.58 1014.35 1014.14 1013.92 1013.70 1013.48 1013.25 1013.03 1012.80 1012.58 1012.34 1012.09 1011.80 1011.46
1017.83 1017.77 1017.74 1017.73 1017.76 1017.80 1017.85 1017.92 1017.97 1018.00 1018.01 1017.97 1017.88 1017.73 1017.52 1017.27 1016.96 1016.63 1016.28 1015.94 1015.61 1015.30 1015.02 1014.76 1014.52 1014.30 1014.08 1013.87 1013.65 1013.44 1013.22 1013.02 1012.83 1012.65 1012.48 1012.31 1012.10 1011.86
1017.71 1017.63 1017.57 1017.53 1017.52 1017.52 1017.55 1017.58 1017.62 1017.65 1017.65 1017.63 1017.56 1017.44 1017.26 1017.04 1016.77 1016.47 1016.16 1015.85 1015.54 1015.26 1014.99 1014.75 1014.51 1014.29 1014.06 1013.84 1013.61 1013.38 1013.17 1012.97 1012.79 1012.64 1012.52 1012.40 1012.27 1012.11
1017.63 1017.54 1017.46 1017.39 1017.33 1017.29 1017.26 1017.25 1017.24 1017.24 1017.23 1017.19 1017.13 1017.02 1016.88 1016.70 1016.49 1016.25 1016.00 1015.74 1015.48 1015.24 1015.00 1014.78 1014.55 1014.32 1014.09 1013.84 1013.60 1013.35 1013.12 1012.91 1012.74 1012.60 1012.49 1012.41 1012.34 1012.25
1017.54 1017.44 1017.35 1017.25 1017.15 1017.06 1016.98 1016.91 1016.84 1016.79 1016.73 1016.67 1016.60 1016.51 1016.40 1016.27 1016.12 1015.96 1015.78 1015.60 1015.41 1015.23 1015.04 1014.84 1014.63 1014.40 1014.16 1013.90 1013.64 1013.37 1013.12 1012.90 1012.71 1012.57 1012.46 1012.40 1012.35 1012.31
1017.39 1017.29 1017.19 1017.08 1016.96 1016.82 1016.69 1016.55 1016.43 1016.31 1016.20 1016.11 1016.02 1015.94 1015.86 1015.79 1015.71 1015.62 1015.53 1015.44 1015.33 1015.21 1015.08 1014.92 1014.74 1014.52 1014.28 1014.02 1013.74 1013.46 1013.20 1012.95 1012.75 1012.59 1012.47 1012.40 1012.36 1012.33
1017.16 1017.07 1016.98 1016.86 1016.72 1016.57 1016.39 1016.20 1016.02 1015.84 1015.69 1015.55 1015.45 1015.37 1015.32 1015.29 1015.27 1015.27 1015.26 1015.25 1015.23 1015.18 1015.11 1015.00 1014.85 1014.66 1014.44 1014.18 1013.91 1013.63 1013.35 1013.09 1012.87 1012.69 1012.55 1012.45 1012.39 1012.35
1016.84 1016.78 1016.70 1016.60 1016.46 1016.29 1016.09 1015.88 1015.65 1015.43 1015.23 1015.06 1014.94 1014.86 1014.83 1014.83 1014.86 1014.92 1014.98 1015.05 1015.09 1015.11 1015.09 1015.04 1014.93 1014.78 1014.59 1014.36 1014.10 1013.83 1013.56 1013.31 1013.07 1012.87 1012.70 1012.56 1012.46 1012.38
1016.46 1016.42 1016.37 1016.29 1016.17 1016.01 1015.81 1015.58 1015.33 1015.08 1014.86 1014.67 1014.52 1014.44 1014.41 1014.43 1014.49 1014.59 1014.70 1014.81 1014.91 1014.98 1015.02 1015.01 1014.95 1014.84 1014.69 1014.50 1014.28 1014.04 1013.79 1013.55 1013.31 1013.08 1012.88 1012.71 1012.56 1012.43
1016.02 1016.01 1015.98 1015.94 1015.85 1015.71 1015.53 1015.30 1015.05 1014.80 1014.56 1014.35 1014.20 1014.10 1014.07 1014.09 1014.16 1014.28 1014.41 1014.54 1014.67 1014.77 1014.84 1014.87 1014.86 1014.80 1014.70 1014.56 1014.40 1014.20 1013.98 1013.76 1013.52 1013.29 1013.06 1012.85 1012.65 1012.47
1015.55 1015.55 1015.55 1015.54 1015.48 1015.38 1015.22 1015.02 1014.79 1014.54 1014.31 1014.10 1013.94 1013.83 1013.78 1013.80 1013.86 1013.96 1014.08 1014.22 1014.35 1014.47 1014.56 1014.62 1014.64 1014.63 1014.59 1014.51 1014.39 1014.25 1014.07 1013.88 1013.65 1013.42 1013.17 1012.92 1012.68 1012.45
1015.04 1015.05 1015.07 1015.08 1015.05 1014.98 1014.86 1014.69 1014.49 1014.27 1014.05 1013.85 1013.69 1013.58 1013.51 1013.50 1013.54 1013.61 1013.71 1013.82 1013.94 1014.05 1014.15 1014.22 1014.28 1014.31 1014.32 1014.30 1014.24 1014.15 1014.02 1013.86 1013.66 1013.42 1013.16 1012.89 1012.62 1012.36
1014.50 1014.50 1014.52 1014.54 1014.54 1014.50 1014.41 1014.29 1014.12 1013.94 1013.75 1013.57 1013.41 1013.29 1013.21 1013.18 1013.18 1013.21 1013.28 1013.35 1013.44 1013.53 1013.62 1013.71 1013.78 1013.85 1013.90 1013.93 1013.93 1013.89 1013.80 1013.68 1013.50 1013.27 1013.01 1012.73 1012.44 1012.16
1013.93 1013.92 1013.93 1013.95 1013.95 1013.93 1013.88 1013.78 1013.66 1013.51 1013.36 1013.20 1013.06 1012.95 1012.86 1012.80 1012.77 1012.76 1012.78 1012.81 1012.87 1012.93 1013.00 1013.09 1013.18 1013.27 1013.36 1013.43 1013.47 1013.48 1013.43 1013.33 1013.18 1012.97 1012.72 1012.44 1012.15 1011.87
1013.36 1013.32 1013.31 1013.31 1013.31 1013.30 1013.26 1013.20 1013.11 1013.00 1012.88 1012.76 1012.64 1012.53 1012.44 1012.36 1012.31 1012.26 1012.24 1012.24 1012.25 1012.28 1012.34 1012.42 1012.51 1012.62 1012.73 1012.83 1012.91 1012.95 1012.94 1012.88 1012.75 1012.56 1012.32 1012.05 1011.77 1011.50
1012.79 1012.72 1012.68 1012.66 1012.65 1012.63 1012.60 1012.56 1012.49 1012.41 1012.33 1012.24 1012.14 1012.05 1011.96 1011.88 1011.80 1011.73 1011.68 1011.64 1011.62 1011.63 1011.67 1011.73 1011.83 1011.95 1012.07 1012.20 1012.30 1012.37 1012.39 1012.35 1012.25 1012.08 1011.87 1011.62 1011.35 1011.10
1012.26 1012.16 1012.09 1012.04 1012.01 1011.97 1011.94 1011.90 1011.85 1011.80 1011.73 1011.67 1011.59 1011.51 1011.43 1011.35 1011.26 1011.17 1011.10 1011.03 1010.99 1010.98 1011.00 1011.06 1011.16 1011.28 1011.41 1011.56 1011.68 1011.78 1011.82 1011.81 1011.73 1011.60 1011.41 1011.18 1010.94 1010.71
1011.76 1011.64 1011.54 1011.47 1011.40 1011.35 1011.30 1011.25 1011.20 1011.16 1011.11 1011.06 1011.00 1010.93 1010.86 1010.77 1010.68 1010.58 1010.49 1010.42 1010.36 1010.34 1010.35 1010.40 1010.50 1010.62 1010.77 1010.93 1011.07 1011.19 1011.26 1011.28 1011.24 1011.14 1010.99 1010.79 1010.58 1010.36
1011.30 1011.15 1011.03 1010.92 1010.83 1010.75 1010.67 1010.61 1010.55 1010.50 1010.45 1010.40 1010.35 1010.29 1010.21 1010.13 1010.03 1009.93 1009.84 1009.76 1009.70 1009.67 1009.68 1009.74 1009.84 1009.97 1010.13 1010.31 1010.48 1010.62 1010.73 1010.78 1010.78 1010.73 1010.61 1010.46 1010.28 1010.08
Thickness
5554 5552 5551 5550 5548 5546 5544 5541 5539 5538 5540 5541 5540 5540 5538 5536 5535 5533 5532 5530 5530 5529 5528 5528 5527 5526 5526 5525 5525 5525 5524 5523 5523 5524 5524 5524 5525 5525
5544 5543 5541 5539 5537 5535 5533 5531 5529 5527 5528 5530 5528 5528 5527 5526 5524 5523 5521 5520 5519 5518 5517 5517 5516 5515 5514 5514 5513 5513 5512 5512 5512 5512 5512 5512 5513 5513
5534 5533 5531 5529 5527 5525 5523 5521 5519 5517 5517 5519 5517 5517 5515 5514 5513 5512 5510 5509 5509 5508 5507 5506 5505 5504 5503 5502 5502 5501 5500 5499 5499 5499 5499 5499 5500 5501
5524 5523 5521 5519 5517 5514 5512 5511 5509 5507 5505 5506 5507 5505 5504 5503 5501 5500 5499 5498 5497 5497 5496 5495 5494 5493 5492 5491 5490 5489 5488 5487 5486 5486 5486 5487 5487 5488
5515 5512 5510 5508 5506 5504 5502 5500 5498 5497 5494 5493 5494 5493 5492 5490 5489 5489 5488 5487 5486 5486 5485 5484 5483 5482 5481 5480 5478 5477 5476 5475 5474 5474 5473 5473 5474 5475
5504 5502 5500 5498 5496 5494 5492 5490 5487 5485 5483 5481 5481 5480 5478 5477 5475 5475 5475 5475 5474 5475 5475 5473 5472 5471 5470 5468 5467 5466 5465 5463 5462 5462 5461 5461 5461 5462
5494 5492 5489 5487 5485 5483 5482 5479 5476 5473 5471 5469 5469 5468 5467 5464 5462 5462 5462 5462 5463 5462 5462 5462 5460 5459 5458 5457 5455 5454 5453 5452 5451 5450 5450 5450 5450 5451
5482 5480 5478 5477 5475 5473 5472 5469 5466 5462 5460 5458 5458 5456 5455 5452 5450 5449 5448 5447 5449 5450 5447 5448 5447 5447 5446 5445 5444 5443 5442 5441 5440 5439 5439 5439 5439 5439
5471 5469 5467 5466 5464 5461 5460 5458 5455 5453 5450 5447 5446 5445 5443 5442 5439 5438 5436 5435 5436 5436 5433 5436 5434 5434 5434 5433 5432 5431 5431 5430 5428 5428 5428 5428 5428 5429
5460 5457 5455 5453 5451 5449 5447 5444 5443 5441 5439 5436 5434 5434 5432 5430 5428 5427 5425 5424 5424 5422 5419 5420 5422 5421 5422 5421 5420 5419 5418 5418 5417 5416 5416 5417 5417 5417
5448 5446 5443 5441 5440 5437 5434 5432 5431 5429 5427 5425 5424 5423 5421 5419 5416 5413 5411 5409 5412 5412 5407 5406 5408 5407 5409 5409 5408 5406 5405 5405 5405 5405 5405 5405 5406 5406
5436 5434 5432 5430 5428 5425 5422 5419 5418 5418 5416 5414 5412 5411 5410 5408 5405 5403 5400 5398 5397 5399 5397 5393 5393 5391 5395 5398 5396 5394 5392 5392 5392 5393 5393 5394 5394 5394
5424 5422 5420 5418 5417 5414 5412 5409 5408 5407 5405 5403 5401 5399 5397 5395 5394 5391 5389 5387 5385 5386 5385 5381 5380 5378 5377 5382 5384 5382 5380 5380 5380 5380 5381 5382 5382 5382
5412 5410 5408 5407 5405 5404 5402 5400 5398 5396 5393 5391 5389 5388 5386 5384 5383 5380 5378 5376 5375 5374 5373 5370 5368 5366 5365 5367 5370 5371 5369 5368 5368 5369 5369 5370 5371 5371
5400 5399 5398 5396 5394 5393 5391 5389 5387 5383 5380 5379 5378 5378 5376 5374 5372 5369 5366 5365 5364 5363 5362 5360 5358 5357 5355 5356 5358 5358 5358 5358 5357 5357 5358 5358 5359 5360
5388 5387 5386 5385 5382 5381 5379 5377 5374 5371 5369 5368 5368 5366 5364 5362 5359 5357 5355 5353 5352 5353 5351 5350 5348 5347 5346 5345 5345 5347 5347 5346 5348 5347 5347 5349 5349 5349
5375 5374 5372 5370 5369 5368 5366 5364 5362 5360 5358 5357 5356 5354 5352 5350 5349 5346 5344 5342 5342 5342 5342 5340 5338 5337 5337 5336 5336 5337 5337 5337 5337 5337 5337 5339 5341 5341
5364 5362 5361 5359 5358 5357 5356 5354 5352 5350 5349 5347 5345 5343 5342 5340 5339 5337 5334 5332 5333 5333 5332 5330 5328 5327 5327 5328 5328 5328 5328 5328 5328 5328 5328 5329 5333 5335
5352 5351 5350 5349 5348 5347 5345 5344 5343 5342 5340 5337 5336 5334 5332 5330 5329 5328 5326 5324 5324 5323 5322 5320 5318 5318 5319 5321 5322 5320 5319 5319 5319 5320 5320 5321 5324 5328
5340 5340 5339 5339 5338 5337 5336 5335 5334 5332 5330 5328 5326 5324 5323 5321 5320 5319 5318 5316 5315 5314 5314 5312 5310 5310 5310 5312 5313 5313 5312 5311 5312 5313 5314 5315 5318 5321
5330 5330 5329 5328 5328 5327 5326 5325 5323 5322 5321 5319 5317 5316 5314 5312 5311 5310 5309 5309 5307 5306 5306 5306 5304 5303 5302 5302 5303 5306 5306 5306 5306 5306 5307 5308 5311 5313
5320 5320 5319 5318 5317 5317 5316 5315 5314 5313 5311 5310 5309 5307 5305 5304 5303 5303 5302 5301 5300 5298 5298 5297 5297 5295 5295 5295 5297 5298 5299 5300 5301 5302 5303 5304 5303 5305
5310 5310 5309 5309 5308 5307 5306 5305 5305 5304 5303 5302 5301 5300 5298 5297 5297 5296 5295 5293 5292 5291 5290 5290 5289 5289 5289 5289 5289 5291 5292 5293 5295 5297 5299 5300 5301 5302